Starlink 3301

operational
NORAD ID: 50169 Int'l Des: 2021-125 Owner: SPXS Country: US Constellation: starlink
LEOCIRCULAR

About Starlink 3301

Description loading...

Live Position

Loading 3D Globe...

Upcoming Passes

Altitude History

Altitude vs Time

uPlot chart will show altitude changes over time

Two-Line Element Set

1 50169U 21125P 25304.84370308 .00001943 00000-0 14014-3 0 9999
2 50169 53.2160 107.5327 0001341 98.0186 262.0958 15.08837576217154
Epoch: Oct 31, 2025 • Age: 22 hours

Current Status

Altitude 542.1 km
Velocity 7.59 km/s
Sub-Earth Point -8.32°S, 17.85°W
Launch Date Dec 18, 2021
Age 3.8 years
Type internet

Technical Details

Classification Payload
Mass 290.00 kg
Dry Mass 270.00 kg
Total Mass 290.00 kg
Length 0.20 m
Diameter 2.80 m
Span 9.00 m
Shape Box + pan
Manufacturer SPXS
Bus Type Starlink
Phase Status In Orbit
Owner/State SPXS/US

Large Constellations

Loading constellations...